Muenster, Germany

3:27 AM CEST on July 27, 2017 (GMT +0200)
Munster-Osnabruck

Weather History for EDDG - December, 2013

Change the Weather History Date:

Monday, December 16, 2013

  Actual Average Record
Temperature  
Mean Temperature 46 °F -  
Max Temperature 54 °F 39 °F 54 °F (2013)
Min Temperature 39 °F 30 °F 8 °F (2010)
Degree Days  
Heating Degree Days 18    
Moisture  
Dew Point 36 °F    
Average Humidity 61    
Maximum Humidity 76    
Minimum Humidity 42    
Precipitation  
Precipitation 0.00 in - - ()
Sea Level Pressure  
Sea Level Pressure 30.21 in    
Wind  
Wind Speed 6 mph ()    
Max Wind Speed 13 mph    
Max Gust Speed -    
Visibility 10.9 miles    
Events      
Averages and records for this station are not official NWS values.
T = Trace of Precipitation, MM = Missing Value Source: Averaged Metar Reports

Daily Weather History Graph

Daily Weather History Graph

Search for Another Location

Airport or City:

Trip Planner

Search our weather history database for the weather conditions in past years. The results will help you decide how hot, cold, wet, or windy it might be!

Date:

Astronomy

Dec. 16, 2013 Rise Set
Actual Time 8:32 AM CET 4:17 PM CET
Civil Twilight 7:51 AM CET 4:58 PM CET
Nautical Twilight 7:07 AM CET 5:42 PM CET
Astronomical Twilight 6:26 AM CET 6:23 PM CET
Moon 4:02 PM CET (12/16) 7:19 AM CET (12/16)
Length of Visible Light 9h 06m
Length of Day
7h 44m
Waxing Gibbous, 99% of the Moon is Illuminated
Dec 16
Waxing Gibbous
Dec 17
Full
Dec 25
Last Quarter
Jan 1
New
Jan 8
First Quarter

Hourly Weather History & Observations

Time (CET) Temp. Windchill Dew Point Humidity Pressure Visibility Wind Dir Wind Speed Gust Speed Precip Events Conditions
12:00 AM 43 °F - 34 °F 62% 30.28 in 19 mi SSE 4.5 mph - -   Scattered Clouds
12:20 AM 42.8 °F 40.1 °F 33.8 °F 70% 30.27 in - SSE 4.6 mph - N/A   Clear
12:50 AM 42.8 °F 40.1 °F 33.8 °F 70% 30.27 in - SE 4.6 mph - N/A   Clear
1:00 AM 42 °F - 33 °F 59% 30.28 in 19 mi SE 4.5 mph - -   Scattered Clouds
1:20 AM 41.0 °F 38.0 °F 32.0 °F 70% 30.24 in - SE 4.6 mph - N/A   Clear
1:50 AM 41.0 °F 38.0 °F 32.0 °F 70% 30.24 in - SE 4.6 mph - N/A   Clear
2:00 AM 40 °F - 31 °F 62% 30.28 in 19 mi SE 4.5 mph - -   Clear
2:20 AM 41.0 °F 37.1 °F 32.0 °F 70% 30.24 in - SSE 5.8 mph - N/A   Clear
2:50 AM 41.0 °F 37.1 °F 32.0 °F 70% 30.24 in - SSE 5.8 mph - N/A   Clear
3:00 AM 40 °F - 31 °F 61% 30.27 in 19 mi SSE 6.7 mph - -   Clear
3:20 AM 41.0 °F 36.4 °F 32.0 °F 70% 30.24 in 6.2 mi SSE 6.9 mph - N/A   Scattered Clouds
3:50 AM 39.2 °F 35.9 °F 30.2 °F 70% 30.24 in 6.2 mi SSE 4.6 mph - N/A   Partly Cloudy
4:00 AM 40 °F - 31 °F 61% 30.27 in 19 mi SSE 4.5 mph - -   Scattered Clouds
4:20 AM 41.0 °F 37.1 °F 32.0 °F 70% 30.24 in 6.2 mi SSE 5.8 mph - N/A   Scattered Clouds
4:50 AM 42.8 °F 38.6 °F 32.0 °F 66% 30.21 in 6.2 mi SE 6.9 mph - N/A   Mostly Cloudy
5:00 AM 43 °F - 32 °F 55% 30.24 in 19 mi SE 6.7 mph - -   Mostly Cloudy
5:20 AM 42.8 °F 38.6 °F 32.0 °F 66% 30.21 in 6.2 mi SSE 6.9 mph - N/A   Scattered Clouds
5:50 AM 44.6 °F 39.7 °F 33.8 °F 66% 30.21 in 6.2 mi South 9.2 mph - N/A   Mostly Cloudy
6:00 AM 44 °F - 33 °F 53% 30.23 in 22 mi South 8.9 mph - -   Mostly Cloudy
6:20 AM 44.6 °F 40.7 °F 33.8 °F 66% 30.21 in 6.2 mi South 6.9 mph - N/A   Mostly Cloudy
6:50 AM 42.8 °F 38.6 °F 33.8 °F 70% 30.21 in 6.2 mi South 6.9 mph - N/A   Scattered Clouds
7:00 AM 43 °F - 33 °F 58% 30.24 in 22 mi South 6.7 mph - -   Scattered Clouds
7:20 AM 41.0 °F 36.4 °F 32.0 °F 70% 30.21 in 6.2 mi South 6.9 mph - N/A   Scattered Clouds
7:50 AM 42.8 °F 38.0 °F 33.8 °F 70% 30.21 in 6.2 mi SSE 8.1 mph - N/A   Mostly Cloudy
8:00 AM 43 °F - 33 °F 58% 30.23 in 19 mi SSE 8.9 mph - -   Mostly Cloudy
8:20 AM 42.8 °F 38.0 °F 33.8 °F 70% 30.21 in 6.2 mi South 8.1 mph - N/A   Mostly Cloudy
8:50 AM 42.8 °F 38.0 °F 33.8 °F 70% 30.21 in 6.2 mi SSE 8.1 mph - N/A   Mostly Cloudy
9:00 AM 43 °F - 35 °F 63% 30.23 in 16 mi SSE 6.7 mph - -   Mostly Cloudy
9:20 AM 44.6 °F 40.7 °F 37.4 °F 76% 30.21 in 6.2 mi SSE 6.9 mph - N/A   Mostly Cloudy
9:50 AM 46.4 °F 42.4 °F 39.2 °F 76% 30.21 in 6.2 mi South 8.1 mph - N/A   Mostly Cloudy
10:00 AM 47 °F - 40 °F 69% 30.23 in 16 mi South 8.9 mph - -   Mostly Cloudy
10:20 AM 48.2 °F - 41.0 °F 76% 30.21 in 6.2 mi South 8.1 mph - N/A   Mostly Cloudy
10:50 AM 50.0 °F - 41.0 °F 71% 30.21 in 6.2 mi South 9.2 mph - N/A   Mostly Cloudy
11:00 AM 49 °F - 41 °F 65% 30.24 in 16 mi South 8.9 mph - -   Mostly Cloudy
11:20 AM 50.0 °F - 41.0 °F 71% 30.21 in 6.2 mi SSW 10.4 mph - N/A   Mostly Cloudy
11:50 AM 51.8 °F - 41.0 °F 67% 30.21 in 6.2 mi SSW 10.4 mph - N/A   Mostly Cloudy
12:00 PM 52 °F - 42 °F 58% 30.22 in 16 mi SSW 8.9 mph - -   Scattered Clouds
12:20 PM 53.6 °F - 41.0 °F 62% 30.21 in 6.2 mi SSW 12.7 mph - N/A   Mostly Cloudy
12:50 PM 53.6 °F - 41.0 °F 62% 30.18 in 6.2 mi SSW 10.4 mph - N/A   Mostly Cloudy
1:00 PM 54 °F - 41 °F 50% 30.20 in 16 mi SSW 11.2 mph - -   Scattered Clouds
1:20 PM 55.4 °F - 41.0 °F 58% 30.18 in 6.2 mi SSW 10.4 mph - N/A   Mostly Cloudy
1:50 PM 55.4 °F - 41.0 °F 58% 30.18 in 6.2 mi SSW 11.5 mph - N/A   Mostly Cloudy
2:00 PM 55 °F - 40 °F 46% 30.20 in 16 mi SSW 11.2 mph - -   Scattered Clouds
2:20 PM 55.4 °F - 39.2 °F 54% 30.18 in 6.2 mi SSW 9.2 mph - N/A   Mostly Cloudy
2:50 PM 53.6 °F - 39.2 °F 58% 30.18 in - South 9.2 mph - N/A   Clear
3:00 PM 54 °F - 40 °F 48% 30.20 in 16 mi South 8.9 mph - -   Scattered Clouds
3:20 PM 53.6 °F - 39.2 °F 58% 30.18 in - South 10.4 mph - N/A   Clear
3:50 PM 51.8 °F - 39.2 °F 62% 30.18 in - South 10.4 mph - N/A   Clear
4:00 PM 53 °F - 39 °F 47% 30.19 in 16 mi South 8.9 mph - -   Scattered Clouds
4:20 PM 51.8 °F - 37.4 °F 58% 30.18 in - South 8.1 mph - N/A   Clear
4:50 PM 50.0 °F - 37.4 °F 62% 30.15 in - SSE 8.1 mph - N/A   Clear
5:00 PM 50 °F - 38 °F 52% 30.18 in 16 mi SSE 8.9 mph - -   Scattered Clouds
5:20 PM 50.0 °F - 37.4 °F 62% 30.15 in - South 9.2 mph - N/A   Clear
5:50 PM 48.2 °F - 35.6 °F 62% 30.18 in - SSE 5.8 mph - N/A   Clear
6:00 PM 49 °F - 36 °F 49% 30.19 in 16 mi SSE 4.5 mph - -   Scattered Clouds
6:20 PM 48.2 °F - 35.6 °F 62% 30.18 in - SSE 3.5 mph - N/A   Clear
6:50 PM 46.4 °F 44.3 °F 35.6 °F 66% 30.18 in - SSE 4.6 mph - N/A   Clear
7:00 PM 46 °F - 35 °F 55% 30.22 in 16 mi SSE 4.5 mph - -   Scattered Clouds
7:20 PM 46.4 °F 43.5 °F 33.8 °F 62% 30.18 in - SSE 5.8 mph - N/A   Clear
7:50 PM 48.2 °F - 32.0 °F 54% 30.21 in - South 8.1 mph - N/A   Clear
8:00 PM 48 °F - 33 °F 44% 30.22 in 19 mi South 6.7 mph - -   Clear
8:20 PM 48.2 °F - 32.0 °F 54% 30.21 in 6.2 mi South 6.9 mph - N/A   Mostly Cloudy
8:50 PM 48.2 °F - 33.8 °F 58% 30.21 in 6.2 mi South 5.8 mph - N/A   Mostly Cloudy
9:00 PM 48 °F - 33 °F 44% 30.23 in 19 mi South 6.7 mph - -   Mostly Cloudy
9:20 PM 48.2 °F - 33.8 °F 58% 30.21 in 6.2 mi South 5.8 mph - N/A   Mostly Cloudy
9:50 PM 48.2 °F - 33.8 °F 58% 30.21 in 6.2 mi South 6.9 mph - N/A   Mostly Cloudy
10:00 PM 49 °F - 33 °F 42% 30.24 in 19 mi South 6.7 mph - -   Mostly Cloudy
10:20 PM 48.2 °F - 33.8 °F 58% 30.21 in 6.2 mi SSE 8.1 mph - N/A   Mostly Cloudy
10:50 PM 50.0 °F - 33.8 °F 54% 30.21 in 6.2 mi South 8.1 mph - N/A   Mostly Cloudy
11:00 PM 50 °F - 35 °F 44% 30.22 in 19 mi South 6.7 mph - -   Mostly Cloudy
11:20 PM 50.0 °F - 35.6 °F 58% 30.21 in 6.2 mi South 6.9 mph - N/A   Mostly Cloudy
11:50 PM 50.0 °F - 35.6 °F 58% 30.21 in 6.2 mi SSW 6.9 mph - N/A   Mostly Cloudy